CAS-7B (99999 NORAD) Tracking and Keplerian Element Data
This shows tracking and keplerian element data for the satellite.
Feedback or suggestion? Click here.
Element | Value |
Catalog | 99999 |
Name | CAS-7B |
Epoch Orbit | 1 |
Epoch Day | 206.2194213 |
Epoch Year | 2019 |
RAAN | 8.1961 |
Inclination | 42.7823 |
Eccentricity | 0.0016683 |
Argument of Perigee | 288.041 |
Mean Anonmoly | 222.2116 |
Mean Motion | 15.95196322 |
Decay Rate | 0 |
L1 | 1 99999U 19206.21942130 .00000000 00000-0 00000-0 0 00008 |
L2 | 2 99999 042.7823 008.1961 0016683 288.0410 222.2116 15.95196322000015 |
Live tracking and technical data element details for CAS-7B (NORAD 99999). CAS-7B can be tracked NOW for your location showing map with azimuth and elevation plus other details from your city location.
Track the satellite on the map from your city or location and see movement details for azimuth, elevation, latitude, longitude, range, height, and movement on the map or in text.
IsCatalogInMostPopularTable: catalog: 99999, numindb: 821
Update: records affected: 1
GetName: 99999 CAS-7B
Hit Count: updated at: Sat, 27 Feb 2021 13:19:39 GMT